Temp
25 25 25 24 23 23 25 24 22 21 19 19 19 21 16 14 11 9 9 14 16 21 23 22 22 25 25 26 28 27 25 28 32 30 29 29 29 31 33 34 35 36 37 37 37 37 38 39 40 42 42 44 45 45 46 47 49 51 52 53 54 54 55 55 55 56 56 56 57 57 59 60 61 62
24 24 24 24 23 24 23 22 23 23 21 20 19 20 19 18 14 12 10 12 18 19 22 24 23 24 25 26 27 27 25 30 31 29 29 29 29 32 33 33 33 35 35 35 35 36 37 38 39 40 42 43 44 45 46 46 47 49 50 51 52 54 54 54 55 54 55 55 55 55 56 58 58 58
22 22 22 23 22 23 23 23 23 23 21 21 22 20 19 17 16 14 11 10 16 21 19 21 24 23 24 26 25 26 26 28 30 29 29 29 31 32 31 32 33 34 34 34 35 35 36 37 38 38 40 42 43 44 44 45 46 46 49 49 50 51 52 53 54 54 54 55 55 55 55 55 56 56
21 21 21 21 21 21 21 20 21 21 22 21 18 18 17 16 15 14 11 11 12 19 20 21 22 24 24 25 24 24 26 28 31 28 28 29 31 30 29 31 32 33 33 34 34 35 36 37 37 38 38 40 42 42 43 44 44 45 46 47 47 49 52 53 53 54 54 55 56 56 56 55 55 55
20 19 18 17 19 20 19 17 17 18 20 18 18 17 15 14 14 13 11 11 12 18 21 22 21 23 23 22 24 23 24 24 25 29 28 29 28 28 28 29 31 32 32 33 33 35 36 36 36 36 37 38 39 41 43 43 43 44 43 43 44 47 48 50 52 53 54 55 56 56 56 56 55 54
19 18 17 17 18 16 15 12 13 16 14 17 16 17 16 16 13 16 14 14 14 14 20 21 23 21 23 20 23 22 22 23 25 25 27 28 28 28 28 28 28 31 32 33 34 35 36 35 35 35 36 36 38 40 41 42 43 41 40 40 41 44 46 47 48 51 53 55 56 56 56 56 56 55
16 15 15 16 17 16 14 14 12 11 11 13 12 12 15 16 17 19 20 17 14 14 16 21 20 21 21 20 21 22 23 24 24 24 25 26 27 28 28 27 28 30 32 33 34 34 35 35 35 35 35 35 37 39 40 40 40 40 39 38 39 41 43 44 45 48 49 52 55 55 55 55 55 54
14 14 14 15 15 15 14 14 14 14 13 12 11 11 12 15 17 19 20 19 16 16 14 17 18 20 19 19 21 22 23 22 23 24 25 25 25 26 27 27 27 29 32 33 33 33 34 34 34 35 35 35 36 37 38 39 39 39 38 38 37 39 41 43 44 45 46 48 51 53 54 54 53 52
15 15 14 15 14 14 13 13 14 14 13 13 13 12 13 12 13 14 17 17 17 15 13 15 17 19 19 19 20 20 19 20 22 23 23 24 25 25 27 27 28 30 32 32 33 33 33 33 34 34 35 35 36 36 37 38 39 39 38 38 37 37 39 41 42 43 43 44 46 50 51 50 48 48
15 14 14 15 15 14 13 13 13 13 13 13 12 12 12 12 10 10 11 13 13 13 12 12 12 14 14 13 16 19 19 18 18 20 22 24 24 25 24 26 27 28 28 28 29 30 31 32 33 34 34 35 35 36 37 38 38 38 38 39 39 38 37 39 41 42 42 44 44 45 47 47 46 46
15 15 14 15 15 14 13 13 12 12 12 13 12 12 11 11 9 10 10 10 9 9 8 9 9 10 12 14 13 16 20 19 18 17 18 18 23 24 24 23 26 28 28 30 31 31 32 32 32 34 35 35 35 35 36 36 37 37 38 38 39 40 39 37 40 41 42 42 43 43 44 45 46 47
14 14 15 15 15 15 14 13 13 13 12 12 11 11 11 11 10 9 8 8 10 10 9 8 7 9 10 12 15 15 15 14 14 17 17 16 18 20 24 25 24 25 25 26 27 30 31 31 32 33 34 35 35 35 35 35 35 36 37 38 39 39 40 39 38 41 42 42 42 43 43 44 44 45
13 14 14 14 15 16 17 17 17 16 16 12 10 11 11 10 9 9 8 8 8 7 7 8 7 8 9 9 9 9 8 9 12 13 17 17 19 20 20 22 25 26 25 25 25 26 27 28 28 29 30 31 33 33 34 34 35 35 36 37 38 39 39 40 40 40 41 42 42 43 43 44 44 44
12 13 13 14 17 17 18 18 18 19 19 18 15 12 11 11 10 9 9 8 8 8 7 8 9 8 7 7 10 9 11 10 12 12 14 13 16 18 16 19 22 24 24 24 23 25 28 27 28 29 29 31 32 31 32 32 34 35 37 38 38 39 39 40 41 40 40 41 42 42 43 43 44 43
11 12 13 13 16 16 17 17 19 19 20 20 20 20 18 16 12 9 10 10 10 10 9 8 7 8 6 8 10 11 10 11 11 13 14 14 13 11 10 9 18 24 23 21 21 22 26 27 25 27 28 30 31 32 32 35 36 37 38 38 38 39 39 40 40 41 41 41 42 42 42 43 43 43
10 11 11 13 14 15 16 16 17 18 19 20 20 21 21 21 20 19 12 10 10 10 10 10 10 6 7 7 8 7 7 8 10 15 15 14 12 11 11 14 12 19 23 19 18 19 25 26 25 26 28 30 31 32 35 37 37 38 38 39 39 39 40 40 40 41 41 41 42 42 42 42 42 42
11 11 11 11 12 13 17 17 16 15 16 19 20 20 21 21 21 21 21 20 14 12 10 9 8 9 9 9 9 10 9 10 8 9 10 12 15 16 14 14 15 17 22 19 15 15 21 24 23 23 27 29 30 31 34 37 38 39 39 39 40 40 40 40 40 41 41 41 41 42 42 42 42 41
11 11 11 11 11 12 14 15 15 15 14 15 17 18 18 18 20 21 22 22 21 19 14 11 9 10 10 10 10 12 16 13 8 5 7 11 13 14 14 17 17 18 21 16 15 15 19 22 22 21 25 28 29 30 34 37 39 39 39 39 40 40 40 40 40 41 41 41 41 41 42 42 41 41
11 12 12 13 13 14 14 15 16 15 14 14 15 16 17 18 18 19 19 19 19 19 18 15 15 14 15 14 13 12 13 15 14 13 14 16 16 15 13 13 14 15 18 18 18 12 18 24 22 23 26 29 30 31 33 36 38 39 39 40 40 40 40 40 40 40 40 41 41 41 41 42 42 41
12 13 13 13 15 16 16 17 20 19 16 15 14 14 15 16 17 18 21 23 23 21 20 18 17 17 17 20 18 18 17 17 17 17 18 18 16 14 12 10 11 11 17 20 19 16 18 21 22 23 26 27 27 31 31 34 38 39 39 39 39 40 40 39 39 40 40 40 41 41 41 41 41 41
13 14 14 15 15 16 17 19 22 22 20 15 15 14 14 15 16 16 19 23 25 26 26 25 25 24 24 25 26 26 26 23 20 18 15 13 15 13 11 11 9 10 16 21 22 20 19 21 21 21 24 25 26 28 29 30 35 38 39 39 40 39 39 39 39 39 40 40 40 41 41 41 40 40
14 15 17 17 17 17 18 22 24 24 21 15 15 15 14 14 14 15 18 18 20 25 26 26 26 26 26 26 26 27 27 27 25 18 13 12 9 10 12 11 11 12 15 18 23 20 19 23 22 19 21 24 23 25 27 30 32 36 38 40 40 39 39 39 39 39 40 40 40 40 41 40 39 38
15 15 17 18 18 18 20 23 25 26 24 17 16 15 14 13 13 15 16 16 16 17 17 19 21 22 25 24 24 24 26 27 26 22 19 16 12 10 11 13 15 14 10 14 24 17 13 17 20 22 19 16 22 25 27 29 29 30 30 33 35 38 39 39 39 39 40 40 40 40 40 40 39 35
15 17 17 18 20 23 23 24 26 26 27 19 17 17 14 13 12 16 16 16 15 14 15 16 18 19 20 20 21 21 21 22 23 24 21 20 16 12 10 11 13 13 13 11 23 18 19 21 21 24 23 20 18 22 26 27 28 30 30 31 29 34 37 37 37 38 39 39 40 40 40 40 39 34
14 15 17 18 21 23 24 25 26 27 27 24 19 17 15 15 16 18 13 15 17 14 14 15 17 17 18 18 18 17 16 17 18 20 22 22 21 18 13 11 11 13 16 18 26 16 17 22 21 23 23 22 23 25 26 27 29 28 30 31 30 31 31 31 32 31 36 39 39 40 40 40 41 37
14 15 17 17 20 22 24 25 26 27 28 26 20 18 22 22 23 19 16 15 16 16 17 17 17 17 17 16 15 16 16 17 18 17 18 21 21 21 18 16 13 12 15 16 28 22 21 22 22 22 22 22 22 25 24 24 25 27 28 29 30 29 31 30 29 28 29 30 30 35 35 40 40 41
15 17 18 19 21 23 24 25 26 27 28 27 22 24 25 25 24 23 20 19 18 18 18 18 17 17 17 17 16 17 17 18 18 18 18 18 19 21 21 21 20 20 20 17 21 22 19 18 22 20 20 23 22 23 24 23 24 25 26 26 28 28 27 30 29 30 29 29 30 37 39 40 40 40
15 16 17 19 23 24 25 26 26 27 26 25 25 26 27 25 24 23 22 21 20 20 19 18 18 18 19 19 19 20 21 21 19 19 18 18 19 20 21 22 24 24 23 20 20 20 17 19 22 24 23 22 21 21 21 26 26 25 23 28 29 28 24 27 29 30 30 30 29 32 31 30 31 34
15 18 20 22 23 24 25 26 26 26 26 27 27 26 25 25 23 23 21 21 19 16 16 19 20 20 21 21 22 23 23 22 21 17 18 18 19 20 20 20 21 22 23 22 19 19 18 18 20 22 24 24 22 23 24 22 25 24 25 26 22 22 25 27 25 25 28 29 30 31 29 28 28 29
18 20 21 22 22 23 24 24 23 23 24 26 26 26 25 22 20 20 20 19 17 14 14 16 18 21 22 23 23 24 24 23 22 22 21 21 21 20 20 20 20 20 21 21 21 19 18 18 21 22 23 24 24 23 23 24 23 26 27 24 25 29 27 28 28 28 28 27 27 28 30 31 31 30
16 17 18 18 21 22 23 24 24 24 25 24 24 24 22 20 20 20 20 18 16 14 12 15 17 20 23 25 24 23 23 22 22 23 23 22 22 22 21 20 20 21 22 24 24 22 19 18 20 22 22 23 24 24 25 25 24 24 26 26 25 20 23 26 28 29 28 27 29 29 29 28 28 29
15 16 17 18 18 19 20 21 21 22 22 22 22 21 19 18 19 21 22 21 15 12 12 14 17 18 19 19 21 23 23 23 24 25 24 23 22 23 22 20 20 21 22 22 22 22 23 18 18 21 23 24 22 23 24 24 20 19 20 23 24 24 28 27 27 28 30 30 28 27 28 28 26 27
13 14 15 14 15 15 16 17 19 20 20 20 20 19 18 16 16 15 14 12 11 12 12 13 15 15 14 16 18 20 20 22 24 25 24 24 23 24 23 21 21 21 20 21 22 22 19 16 20 23 25 25 25 25 24 22 21 20 19 18 22 24 25 26 27 26 27 27 26 27 26 27 28 28
11 10 11 13 13 14 14 16 17 18 18 18 18 18 19 16 14 13 13 12 11 13 13 15 17 18 18 17 16 16 17 18 20 23 24 23 24 22 21 20 21 22 22 21 21 21 21 21 20 22 25 25 25 26 25 22 20 23 22 20 21 24 26 26 25 25 26 25 26 25 24 24 25 25
10 10 9 12 14 14 15 15 17 17 18 18 17 17 16 14 15 14 13 13 14 14 15 17 18 18 18 17 18 17 16 16 15 16 20 21 22 21 21 20 20 22 21 19 19 21 22 22 22 21 22 22 22 24 27 26 22 23 24 21 20 23 25 26 26 28 27 25 26 24 25 24 23 23
8 10 10 11 13 15 15 16 17 18 18 18 17 16 14 13 12 13 12 14 14 13 13 15 15 15 15 15 16 16 15 16 13 14 16 18 19 19 18 18 18 18 18 18 18 20 23 22 22 20 18 18 18 17 20 28 27 22 22 21 22 23 24 24 26 27 26 24 24 24 23 23 22 21
8 10 11 11 13 15 16 16 17 17 18 17 16 16 14 12 11 10 11 14 11 11 10 11 12 13 14 15 15 17 17 16 14 14 15 17 19 20 20 20 20 20 19 20 21 22 22 22 22 21 19 17 16 15 17 21 26 28 21 21 22 23 23 24 25 24 23 24 24 24 22 22 21 20
7 9 10 12 13 14 15 17 18 17 17 17 17 15 13 12 9 5 4 9 9 8 9 8 9 10 9 12 13 13 14 15 16 17 18 18 18 18 20 20 21 21 20 20 22 23 22 21 21 21 19 17 15 15 15 20 18 21 27 24 21 22 23 24 23 22 21 21 24 24 24 21 23 23
7 8 10 12 14 15 15 16 17 17 16 16 15 14 12 10 7 5 6 7 6 8 7 7 5 6 7 7 11 12 12 13 14 15 16 17 18 19 19 19 19 20 20 20 21 23 22 20 21 21 21 19 17 17 18 18 19 21 25 29 24 20 19 23 23 21 19 18 17 20 21 21 26 27
8 9 10 12 12 15 15 15 16 17 16 15 14 13 11 9 8 7 6 6 6 6 5 5 6 6 3 4 7 8 12 13 14 14 15 16 18 20 20 21 21 21 21 20 19 19 19 20 22 22 22 23 23 23 22 21 18 19 19 26 30 25 17 21 24 22 19 19 19 19 19 20 18 18
8 8 9 11 13 13 14 15 15 14 14 13 12 12 11 10 9 8 7 6 7 6 4 2 3 2 3 2 4 6 8 11 12 12 13 14 16 18 20 21 21 21 20 19 19 18 18 20 22 25 24 21 22 22 21 19 18 18 18 18 27 30 26 22 24 24 21 20 22 22 21 19 16 17
10 9 10 12 12 14 13 12 12 12 11 11 10 10 9 9 8 11 9 8 5 4 2 0 -0 1 -0 -1 2 8 7 9 11 13 15 15 15 16 18 19 19 20 20 19 18 19 21 21 21 23 22 20 19 20 18 20 19 18 19 19 20 27 30 27 27 23 23 23 22 21 21 21 20 17
11 11 10 11 12 11 10 10 10 10 9 8 8 8 7 7 8 7 4 3 3 3 2 -0 -2 -1 -1 -2 1 5 6 8 9 10 12 14 15 15 17 19 20 20 19 18 16 15 17 17 19 21 21 21 21 21 20 21 21 19 18 18 19 21 23 27 27 27 26 26 25 22 22 22 21 17
6 6 6 6 8 8 7 7 7 7 7 7 6 6 6 6 5 5 4 3 3 3 1 -0 -2 -1 -2 -3 -0 1 4 6 8 9 10 12 14 15 16 17 19 20 20 20 18 17 17 15 17 21 20 20 21 20 20 20 18 19 19 19 19 19 19 21 23 24 24 25 26 26 26 26 25 25
3 3 3 4 4 4 5 5 5 5 5 5 5 6 5 5 4 4 3 3 2 2 1 -0 -2 -4 -4 -1 -1 -1 2 10 10 10 11 12 12 14 14 15 16 18 19 20 20 17 15 13 16 20 21 21 21 21 20 20 18 18 18 18 17 18 19 19 18 18 18 17 22 26 27 27 27 27
MSLP
1019.81 1019.81 1019.85 1019.93 1020.09 1020.17 1020.21 1020.17 1020.25 1020.29 1020.33 1020.41 1020.45 1020.53 1020.81 1021.13 1021.53 1021.69 1021.45 1021.01 1020.69 1020.01 1019.81 1019.61 1019.01 1019.05 1019.01 1018.93 1018.93 1018.97 1018.97 1018.85 1018.65 1018.57 1018.49 1018.41 1018.25 1018.05 1017.85 1017.61 1017.41 1017.05 1016.49 1016.01 1015.81 1015.61 1015.21 1014.65 1014.05 1013.61 1013.21 1012.85 1012.53 1012.41 1012.25 1011.97 1011.33 1010.65 1010.21 1009.81 1009.25 1008.77 1008.65 1008.21 1007.93 1007.69 1007.45 1007.61 1007.57 1007.53 1007.93 1008.17 1008.37 1008.81
1019.69 1019.65 1019.69 1019.73 1019.81 1019.93 1020.05 1020.09 1020.13 1020.21 1020.25 1020.33 1020.41 1020.49 1020.57 1020.73 1021.09 1021.29 1021.37 1020.69 1020.37 1020.09 1019.77 1019.61 1019.33 1019.09 1019.17 1019.13 1019.01 1018.89 1018.85 1018.69 1018.53 1018.49 1018.49 1018.37 1018.17 1017.85 1017.65 1017.53 1017.37 1017.05 1016.65 1016.37 1016.13 1015.85 1015.45 1014.93 1014.37 1013.89 1013.49 1013.25 1012.97 1012.73 1012.53 1012.41 1012.09 1011.37 1010.77 1010.37 1009.93 1009.33 1009.13 1008.89 1008.57 1008.33 1008.05 1007.97 1008.17 1008.17 1008.33 1008.61 1008.97 1009.29
1019.65 1019.61 1019.57 1019.57 1019.61 1019.69 1019.85 1019.93 1019.97 1020.05 1020.13 1020.17 1020.25 1020.29 1020.37 1020.41 1020.53 1020.77 1020.97 1020.93 1019.81 1020.01 1019.97 1019.65 1019.57 1019.57 1019.33 1019.13 1019.01 1018.85 1018.81 1018.73 1018.57 1018.45 1018.41 1018.29 1018.01 1017.77 1017.65 1017.57 1017.33 1017.05 1016.77 1016.49 1016.21 1015.89 1015.49 1014.97 1014.53 1014.17 1013.89 1013.53 1013.21 1013.09 1013.05 1012.89 1012.57 1012.09 1011.33 1010.97 1010.49 1010.05 1009.73 1009.53 1009.25 1008.93 1008.65 1008.49 1008.61 1008.77 1009.01 1009.17 1009.37 1009.49
1019.41 1019.41 1019.41 1019.41 1019.45 1019.53 1019.61 1019.73 1019.81 1019.81 1019.85 1019.93 1020.01 1020.09 1020.13 1020.21 1020.29 1020.49 1020.69 1020.69 1020.29 1020.01 1020.01 1019.93 1019.77 1019.65 1019.45 1019.21 1019.01 1018.81 1018.65 1018.61 1018.57 1018.45 1018.33 1018.13 1017.89 1017.77 1017.69 1017.53 1017.29 1016.97 1016.69 1016.45 1016.21 1015.85 1015.37 1014.93 1014.61 1014.33 1014.05 1013.81 1013.53 1013.37 1013.33 1013.17 1012.85 1012.33 1011.97 1011.65 1011.33 1010.85 1010.29 1009.93 1009.73 1009.37 1009.01 1008.97 1009.17 1009.33 1009.49 1009.57 1009.77 1010.01
1019.29 1019.33 1019.29 1019.29 1019.29 1019.37 1019.45 1019.57 1019.69 1019.69 1019.69 1019.77 1019.81 1019.89 1019.97 1020.09 1020.17 1020.29 1020.49 1020.61 1020.33 1020.05 1019.93 1019.97 1019.93 1019.77 1019.61 1019.29 1019.05 1018.81 1018.57 1018.45 1018.41 1018.29 1018.17 1018.01 1017.85 1017.69 1017.53 1017.33 1017.13 1016.89 1016.61 1016.33 1016.09 1015.69 1015.21 1014.85 1014.65 1014.37 1014.05 1013.89 1013.73 1013.53 1013.45 1013.25 1012.85 1012.61 1012.49 1012.37 1012.05 1011.53 1011.01 1010.49 1010.09 1009.77 1009.45 1009.41 1009.61 1009.81 1010.01 1009.93 1010.13 1010.53
1019.17 1019.25 1019.29 1019.25 1019.25 1019.21 1019.29 1019.45 1019.57 1019.69 1019.69 1019.65 1019.69 1019.69 1019.69 1019.89 1020.09 1020.09 1020.37 1020.41 1020.45 1020.25 1020.05 1020.01 1019.81 1019.77 1019.57 1019.41 1019.09 1018.97 1018.69 1018.41 1018.21 1018.13 1018.01 1017.85 1017.77 1017.65 1017.41 1017.17 1016.93 1016.73 1016.45 1016.21 1015.85 1015.41 1014.97 1014.69 1014.53 1014.33 1014.13 1013.97 1013.81 1013.65 1013.53 1013.37 1013.05 1013.01 1013.05 1012.93 1012.69 1012.41 1011.85 1011.21 1010.77 1010.37 1010.17 1010.01 1010.05 1010.21 1010.41 1010.45 1010.53 1010.93
1019.09 1019.17 1019.17 1019.17 1019.21 1019.25 1019.33 1019.37 1019.49 1019.69 1019.81 1019.89 1019.93 1019.81 1019.61 1019.69 1019.89 1020.01 1020.09 1020.25 1020.37 1020.29 1020.09 1019.93 1019.89 1019.81 1019.65 1019.57 1019.25 1019.01 1018.77 1018.53 1018.33 1018.13 1017.97 1017.81 1017.61 1017.45 1017.25 1016.97 1016.77 1016.61 1016.41 1016.13 1015.81 1015.37 1014.93 1014.65 1014.45 1014.33 1014.21 1014.13 1013.89 1013.69 1013.69 1013.77 1013.53 1013.41 1013.45 1013.41 1013.29 1013.09 1012.65 1012.01 1011.49 1011.01 1010.89 1010.65 1010.45 1010.61 1010.81 1010.97 1011.09 1011.25
1018.89 1019.01 1019.09 1019.09 1019.17 1019.21 1019.25 1019.25 1019.37 1019.53 1019.73 1019.89 1019.89 1019.89 1019.73 1019.53 1019.61 1019.77 1019.85 1019.93 1020.09 1020.05 1020.13 1019.85 1019.97 1019.73 1019.73 1019.49 1019.29 1019.13 1018.85 1018.69 1018.45 1018.29 1018.01 1017.81 1017.65 1017.41 1017.09 1016.85 1016.57 1016.37 1016.17 1015.93 1015.65 1015.37 1015.01 1014.73 1014.45 1014.33 1014.25 1014.21 1014.13 1013.97 1013.97 1014.13 1013.93 1013.69 1013.73 1013.77 1013.77 1013.57 1013.17 1012.69 1012.21 1011.85 1011.65 1011.41 1011.21 1011.09 1011.33 1011.53 1011.61 1011.69
1018.57 1018.73 1018.85 1018.93 1019.05 1019.13 1019.17 1019.09 1019.13 1019.29 1019.53 1019.65 1019.81 1019.81 1019.73 1019.61 1019.57 1019.65 1019.81 1019.85 1019.93 1019.97 1020.05 1019.93 1019.81 1019.81 1019.73 1019.57 1019.45 1019.33 1019.17 1018.81 1018.57 1018.33 1018.13 1017.85 1017.53 1017.21 1016.89 1016.61 1016.33 1016.01 1015.73 1015.53 1015.33 1015.17 1015.01 1014.81 1014.65 1014.45 1014.33 1014.25 1014.25 1014.29 1014.25 1014.37 1014.21 1014.05 1013.97 1013.97 1014.05 1013.93 1013.65 1013.17 1012.77 1012.53 1012.37 1012.17 1011.93 1011.77 1011.85 1012.17 1012.33 1012.37
1018.25 1018.41 1018.53 1018.69 1018.77 1018.85 1018.89 1018.81 1018.81 1018.97 1019.17 1019.41 1019.57 1019.61 1019.65 1019.61 1019.61 1019.65 1019.73 1019.81 1019.85 1019.89 1019.93 1019.97 1019.97 1019.85 1019.89 1019.77 1019.57 1019.33 1019.17 1018.97 1018.69 1018.29 1017.97 1017.73 1017.49 1017.17 1016.81 1016.53 1016.13 1015.77 1015.49 1015.25 1014.97 1014.77 1014.69 1014.69 1014.65 1014.65 1014.57 1014.53 1014.49 1014.45 1014.49 1014.49 1014.45 1014.37 1014.45 1014.33 1014.13 1014.13 1014.05 1013.69 1013.29 1013.05 1012.85 1012.77 1012.65 1012.45 1012.37 1012.69 1012.93 1012.97
1017.97 1018.05 1018.17 1018.29 1018.37 1018.49 1018.53 1018.65 1018.61 1018.61 1018.85 1019.05 1019.21 1019.33 1019.41 1019.53 1019.61 1019.69 1019.81 1019.85 1019.89 1019.89 1019.93 1019.89 1019.85 1019.89 1019.77 1019.73 1019.65 1019.33 1019.13 1018.89 1018.69 1018.49 1018.09 1017.73 1017.33 1017.01 1016.73 1016.37 1015.93 1015.61 1015.33 1015.01 1014.77 1014.57 1014.41 1014.33 1014.37 1014.41 1014.45 1014.49 1014.57 1014.61 1014.61 1014.61 1014.57 1014.57 1014.61 1014.61 1014.49 1014.21 1014.13 1014.05 1013.77 1013.53 1013.33 1013.09 1013.01 1012.97 1012.97 1013.09 1013.21 1013.29
1017.69 1017.69 1017.77 1017.89 1017.93 1018.05 1018.17 1018.33 1018.41 1018.41 1018.53 1018.69 1018.93 1019.05 1019.21 1019.33 1019.49 1019.65 1019.77 1019.85 1019.89 1019.93 1019.97 1019.93 1019.93 1019.85 1019.81 1019.65 1019.41 1019.21 1019.05 1018.93 1018.73 1018.57 1018.45 1018.09 1017.45 1016.97 1016.57 1016.33 1016.09 1015.65 1015.41 1015.13 1014.85 1014.61 1014.41 1014.25 1014.17 1014.13 1014.17 1014.25 1014.33 1014.41 1014.41 1014.45 1014.53 1014.53 1014.53 1014.53 1014.41 1014.33 1014.13 1013.97 1013.97 1013.77 1013.61 1013.49 1013.33 1013.33 1013.37 1013.45 1013.57 1013.61
1017.41 1017.37 1017.41 1017.53 1017.61 1017.65 1017.77 1017.89 1018.01 1018.13 1018.17 1018.41 1018.61 1018.73 1018.89 1019.05 1019.25 1019.49 1019.69 1019.85 1019.89 1019.93 1019.93 1019.85 1019.81 1019.81 1019.77 1019.61 1019.49 1019.37 1019.21 1019.09 1019.01 1018.69 1018.61 1018.37 1017.77 1017.25 1016.85 1016.49 1016.17 1015.89 1015.61 1015.29 1015.05 1014.85 1014.61 1014.33 1014.17 1014.01 1013.97 1013.93 1013.93 1014.01 1014.05 1014.05 1014.13 1014.17 1014.13 1014.05 1013.97 1013.89 1013.89 1013.81 1013.81 1013.81 1013.73 1013.65 1013.65 1013.65 1013.73 1013.81 1013.89 1013.97
1017.13 1017.09 1017.09 1017.17 1017.29 1017.37 1017.41 1017.45 1017.57 1017.65 1017.73 1017.85 1018.09 1018.33 1018.53 1018.69 1018.97 1019.21 1019.45 1019.65 1019.73 1019.77 1019.73 1019.69 1019.73 1019.73 1019.65 1019.53 1019.33 1019.25 1019.09 1018.97 1018.89 1018.89 1018.77 1018.65 1018.13 1017.77 1017.57 1016.93 1016.49 1016.13 1016.01 1015.65 1015.33 1014.89 1014.61 1014.45 1014.13 1013.97 1013.85 1013.61 1013.57 1013.57 1013.65 1013.73 1013.73 1013.73 1013.65 1013.61 1013.53 1013.49 1013.49 1013.57 1013.61 1013.73 1013.81 1013.77 1013.77 1013.85 1013.93 1014.05 1014.17 1014.25
1016.89 1016.81 1016.77 1016.85 1016.93 1017.05 1017.09 1017.09 1017.13 1017.25 1017.29 1017.37 1017.49 1017.73 1017.97 1018.21 1018.45 1018.81 1019.05 1019.25 1019.37 1019.45 1019.45 1019.41 1019.41 1019.41 1019.37 1019.25 1019.05 1018.97 1018.93 1018.89 1018.93 1018.97 1018.85 1018.73 1018.57 1018.73 1018.37 1018.13 1016.61 1016.29 1016.29 1016.21 1015.85 1015.37 1014.89 1014.69 1014.53 1014.09 1013.89 1013.61 1013.41 1013.29 1013.29 1013.25 1013.21 1013.17 1013.17 1013.21 1013.25 1013.21 1013.17 1013.21 1013.33 1013.45 1013.65 1013.77 1013.81 1013.89 1014.05 1014.21 1014.33 1014.45
1016.65 1016.61 1016.53 1016.45 1016.53 1016.53 1016.61 1016.73 1016.85 1016.93 1016.93 1016.97 1017.05 1017.21 1017.37 1017.53 1017.77 1018.01 1018.37 1018.73 1018.97 1019.05 1019.09 1019.05 1019.01 1019.13 1019.13 1019.09 1018.93 1018.93 1018.97 1018.93 1018.93 1018.81 1018.77 1018.77 1018.81 1018.73 1018.69 1018.25 1017.93 1016.81 1016.65 1016.73 1016.49 1015.93 1015.13 1015.05 1014.77 1014.37 1013.93 1013.61 1013.45 1013.25 1013.05 1012.97 1012.97 1012.97 1012.89 1012.89 1012.93 1012.97 1013.01 1013.05 1013.13 1013.29 1013.45 1013.65 1013.81 1013.89 1014.09 1014.25 1014.41 1014.57
1016.21 1016.25 1016.25 1016.25 1016.21 1016.21 1016.21 1016.41 1016.57 1016.73 1016.73 1016.65 1016.65 1016.77 1016.89 1017.01 1017.13 1017.33 1017.61 1017.89 1018.21 1018.45 1018.65 1018.77 1018.77 1018.81 1018.85 1018.89 1018.73 1018.69 1018.69 1018.69 1018.73 1018.73 1018.81 1018.85 1018.77 1018.65 1018.61 1018.45 1018.01 1017.45 1017.33 1017.13 1017.09 1016.73 1015.61 1015.25 1015.01 1014.61 1013.97 1013.73 1013.53 1013.33 1013.17 1012.97 1012.89 1012.89 1012.89 1012.81 1012.77 1012.77 1012.85 1013.01 1013.13 1013.25 1013.37 1013.49 1013.69 1013.89 1014.05 1014.25 1014.45 1014.61
1015.85 1015.85 1015.85 1015.89 1015.89 1015.93 1016.01 1015.97 1016.13 1016.37 1016.53 1016.57 1016.53 1016.45 1016.49 1016.57 1016.73 1016.81 1016.89 1017.13 1017.41 1017.73 1018.05 1018.33 1018.53 1018.53 1018.57 1018.57 1018.45 1018.33 1018.29 1018.45 1018.57 1018.61 1018.73 1018.65 1018.73 1018.81 1018.81 1018.41 1018.05 1017.69 1017.65 1017.81 1017.53 1017.01 1015.57 1015.25 1015.17 1014.89 1014.21 1013.81 1013.57 1013.37 1013.17 1012.97 1012.81 1012.77 1012.81 1012.73 1012.69 1012.65 1012.73 1012.89 1013.09 1013.21 1013.33 1013.49 1013.61 1013.81 1014.05 1014.29 1014.49 1014.61
1015.45 1015.49 1015.45 1015.33 1015.33 1015.37 1015.53 1015.53 1015.61 1015.89 1016.13 1016.33 1016.37 1016.29 1016.21 1016.21 1016.29 1016.45 1016.57 1016.61 1016.77 1016.97 1017.29 1017.65 1017.85 1018.05 1018.17 1018.21 1018.21 1018.17 1018.13 1018.13 1018.17 1018.29 1018.33 1018.37 1018.45 1018.45 1018.41 1018.37 1018.21 1017.93 1017.57 1017.49 1017.65 1017.33 1015.57 1015.17 1015.13 1014.77 1014.25 1013.81 1013.57 1013.33 1013.17 1012.97 1012.85 1012.73 1012.65 1012.65 1012.61 1012.61 1012.65 1012.81 1013.01 1013.25 1013.37 1013.49 1013.61 1013.77 1014.01 1014.21 1014.45 1014.61
1015.01 1015.05 1015.01 1014.89 1014.69 1014.61 1014.73 1014.89 1014.93 1015.21 1015.61 1015.89 1016.01 1016.01 1016.01 1016.05 1016.09 1016.09 1016.05 1016.21 1016.29 1016.45 1016.61 1016.89 1017.17 1017.37 1017.53 1017.57 1017.73 1017.81 1017.93 1017.97 1017.97 1018.09 1018.09 1018.09 1018.17 1018.29 1018.41 1018.41 1017.93 1017.73 1016.97 1016.85 1017.09 1016.85 1015.81 1015.17 1015.17 1014.61 1014.21 1014.01 1013.81 1013.37 1013.21 1013.01 1012.81 1012.73 1012.69 1012.65 1012.61 1012.57 1012.61 1012.69 1012.89 1013.13 1013.37 1013.49 1013.61 1013.73 1013.89 1014.05 1014.29 1014.49
1014.37 1014.41 1014.37 1014.25 1014.21 1014.13 1014.05 1014.13 1014.25 1014.37 1014.89 1015.37 1015.45 1015.53 1015.65 1015.73 1015.85 1015.81 1015.89 1015.81 1015.77 1015.77 1015.89 1016.05 1016.29 1016.53 1016.73 1016.77 1016.77 1016.85 1016.97 1017.21 1017.49 1017.77 1018.01 1018.09 1018.01 1018.13 1018.17 1017.89 1017.57 1017.25 1016.65 1016.17 1016.21 1016.29 1015.61 1014.93 1014.97 1014.65 1014.33 1014.21 1013.97 1013.61 1013.29 1013.05 1012.85 1012.69 1012.61 1012.57 1012.57 1012.57 1012.57 1012.61 1012.73 1012.93 1013.17 1013.33 1013.45 1013.57 1013.69 1013.85 1014.01 1014.25
1013.49 1013.69 1013.73 1013.69 1013.61 1013.57 1013.53 1013.53 1013.45 1013.57 1014.01 1014.65 1014.89 1015.09 1015.29 1015.49 1015.57 1015.57 1015.61 1015.77 1015.69 1015.49 1015.41 1015.45 1015.57 1015.73 1015.89 1016.01 1016.13 1016.17 1016.25 1016.33 1016.57 1017.29 1017.65 1017.57 1017.73 1017.85 1017.73 1017.77 1017.37 1016.89 1016.33 1015.97 1015.77 1015.77 1015.41 1014.93 1014.73 1014.77 1014.33 1014.01 1013.65 1013.49 1013.25 1013.05 1012.85 1012.61 1012.45 1012.37 1012.45 1012.53 1012.61 1012.65 1012.69 1012.77 1012.93 1013.21 1013.37 1013.45 1013.53 1013.65 1013.85 1014.05
1012.65 1012.85 1013.01 1013.05 1013.05 1013.01 1012.93 1012.93 1012.81 1012.81 1013.05 1013.85 1014.25 1014.53 1014.89 1015.17 1015.17 1015.05 1015.33 1015.49 1015.65 1015.73 1015.73 1015.49 1015.37 1015.37 1015.33 1015.37 1015.49 1015.65 1015.77 1015.81 1015.89 1016.29 1016.61 1016.97 1017.37 1017.49 1017.33 1017.17 1017.01 1016.77 1016.21 1015.61 1015.49 1015.89 1015.49 1015.17 1014.93 1014.81 1014.65 1014.49 1013.53 1013.13 1013.01 1012.85 1012.73 1012.57 1012.41 1012.33 1012.33 1012.41 1012.53 1012.61 1012.65 1012.73 1012.81 1012.97 1013.21 1013.37 1013.45 1013.49 1013.65 1013.89
1011.77 1011.93 1012.09 1012.29 1012.33 1012.25 1012.25 1012.21 1012.17 1012.17 1012.29 1013.05 1013.65 1014.05 1014.45 1014.65 1014.61 1014.65 1015.09 1015.17 1015.29 1015.45 1015.49 1015.33 1015.29 1015.29 1015.29 1015.41 1015.45 1015.49 1015.53 1015.57 1015.61 1015.69 1015.97 1016.29 1016.69 1016.97 1017.01 1017.01 1017.01 1016.97 1016.45 1015.61 1015.61 1016.01 1015.53 1015.13 1015.01 1014.77 1014.89 1014.73 1014.25 1013.41 1012.97 1012.85 1012.65 1012.41 1012.25 1012.29 1012.37 1012.41 1012.45 1012.53 1012.61 1012.69 1012.77 1012.89 1012.97 1013.17 1013.29 1013.33 1013.45 1013.73
1011.21 1011.37 1011.49 1011.45 1011.53 1011.53 1011.57 1011.65 1011.61 1011.57 1011.61 1012.25 1013.01 1013.45 1013.77 1013.85 1013.73 1014.29 1014.73 1014.73 1014.93 1015.21 1015.25 1015.25 1015.29 1015.29 1015.29 1015.33 1015.33 1015.37 1015.37 1015.41 1015.41 1015.45 1015.53 1015.73 1015.97 1016.25 1016.53 1016.73 1016.77 1016.53 1016.05 1015.73 1015.69 1015.81 1015.77 1015.13 1015.09 1014.81 1014.85 1014.69 1014.37 1013.85 1013.33 1012.85 1012.45 1012.25 1012.09 1012.09 1012.21 1012.33 1012.45 1012.53 1012.61 1012.77 1012.85 1012.89 1012.93 1012.93 1012.97 1013.09 1013.17 1013.45
1010.77 1010.93 1011.13 1011.21 1011.17 1011.17 1011.13 1011.13 1011.13 1011.09 1011.09 1011.53 1012.37 1012.77 1012.81 1013.01 1013.37 1013.65 1013.89 1014.33 1014.57 1014.73 1014.81 1014.89 1014.97 1015.01 1015.09 1015.17 1015.21 1015.17 1015.13 1015.13 1015.13 1015.17 1015.21 1015.29 1015.41 1015.57 1015.69 1015.97 1016.21 1016.21 1015.61 1015.45 1015.37 1015.37 1015.37 1015.29 1015.17 1015.13 1015.13 1014.89 1014.33 1013.97 1013.41 1012.93 1012.49 1012.25 1012.13 1012.09 1012.01 1012.09 1012.25 1012.41 1012.61 1012.77 1012.89 1013.05 1013.05 1013.01 1012.93 1012.85 1012.97 1013.21
1010.41 1010.53 1010.61 1010.73 1010.85 1010.81 1010.73 1010.69 1010.65 1010.65 1010.65 1010.93 1011.61 1011.85 1012.05 1012.33 1012.61 1012.93 1013.37 1013.69 1013.93 1014.09 1014.17 1014.29 1014.41 1014.45 1014.57 1014.73 1014.81 1014.85 1014.85 1014.81 1014.81 1014.85 1014.85 1014.93 1015.01 1015.09 1015.21 1015.37 1015.49 1015.41 1015.13 1015.37 1015.33 1015.29 1015.37 1015.37 1015.09 1015.33 1015.33 1014.93 1014.65 1014.01 1013.57 1013.21 1012.73 1012.37 1012.21 1012.21 1012.09 1012.09 1012.21 1012.33 1012.53 1012.69 1012.81 1012.93 1013.05 1013.05 1013.01 1012.93 1012.89 1013.01
1010.21 1010.29 1010.29 1010.21 1010.25 1010.33 1010.29 1010.25 1010.21 1010.21 1010.21 1010.57 1010.93 1011.17 1011.33 1011.69 1012.01 1012.41 1012.61 1012.81 1013.01 1013.25 1013.45 1013.65 1013.73 1013.85 1013.89 1014.05 1014.21 1014.25 1014.25 1014.29 1014.37 1014.41 1014.49 1014.57 1014.65 1014.73 1014.85 1014.93 1015.01 1015.01 1014.97 1015.09 1015.25 1015.25 1015.33 1015.41 1015.21 1015.05 1015.13 1015.01 1014.89 1014.61 1014.09 1013.17 1013.05 1012.93 1012.81 1012.41 1012.29 1012.25 1012.29 1012.45 1012.45 1012.57 1012.69 1012.81 1012.97 1013.01 1013.09 1013.17 1013.17 1013.17
1009.81 1010.01 1010.13 1010.05 1009.81 1009.73 1009.73 1009.69 1009.73 1009.81 1009.81 1009.93 1010.25 1010.57 1010.93 1011.21 1011.57 1011.77 1012.05 1012.29 1012.49 1012.69 1012.81 1013.01 1013.13 1013.21 1013.25 1013.29 1013.33 1013.45 1013.61 1013.69 1013.89 1014.09 1014.21 1014.33 1014.41 1014.49 1014.57 1014.65 1014.69 1014.69 1014.69 1014.73 1014.93 1015.01 1015.13 1015.21 1015.13 1015.01 1015.01 1014.97 1014.97 1014.65 1014.29 1014.05 1013.41 1013.17 1012.97 1012.85 1012.81 1012.61 1012.65 1012.73 1012.61 1012.65 1012.73 1012.81 1012.93 1013.05 1013.17 1013.25 1013.37 1013.41
1009.45 1009.65 1009.69 1009.57 1009.49 1009.41 1009.25 1009.21 1009.25 1009.37 1009.49 1009.65 1009.89 1010.13 1010.49 1010.93 1011.29 1011.53 1011.81 1012.05 1012.25 1012.37 1012.45 1012.53 1012.65 1012.73 1012.77 1012.85 1012.81 1012.89 1013.05 1013.33 1013.49 1013.65 1013.85 1014.09 1014.25 1014.37 1014.57 1014.69 1014.61 1014.57 1014.53 1014.53 1014.61 1014.69 1014.81 1014.93 1014.93 1014.93 1014.89 1014.85 1014.89 1014.81 1014.45 1014.05 1013.69 1013.41 1013.17 1013.17 1013.01 1012.85 1012.93 1012.93 1012.89 1012.85 1012.89 1013.01 1013.01 1013.09 1013.21 1013.29 1013.49 1013.53
1009.01 1009.33 1009.49 1009.41 1009.25 1009.13 1009.05 1008.93 1008.89 1009.01 1009.21 1009.37 1009.61 1009.89 1010.25 1010.69 1010.93 1011.25 1011.49 1011.77 1012.01 1012.17 1012.29 1012.37 1012.45 1012.45 1012.45 1012.41 1012.45 1012.57 1012.73 1012.89 1012.97 1013.13 1013.37 1013.61 1013.69 1013.89 1014.13 1014.29 1014.25 1014.25 1014.13 1014.17 1014.25 1014.33 1014.45 1014.57 1014.69 1014.73 1014.85 1014.73 1014.65 1014.61 1014.37 1014.13 1014.01 1013.77 1013.53 1013.33 1013.21 1013.41 1013.21 1013.17 1013.21 1013.17 1013.13 1013.09 1013.09 1013.21 1013.37 1013.53 1013.73 1013.89
1008.65 1008.89 1009.13 1009.33 1009.25 1009.09 1008.97 1008.81 1008.73 1008.73 1008.81 1009.05 1009.29 1009.69 1010.21 1010.53 1010.69 1010.97 1011.25 1011.57 1011.81 1012.01 1012.09 1012.25 1012.41 1012.53 1012.53 1012.61 1012.49 1012.37 1012.41 1012.49 1012.53 1012.65 1012.81 1012.97 1013.25 1013.37 1013.61 1013.85 1013.81 1013.77 1013.69 1013.77 1013.85 1013.89 1014.01 1014.25 1014.45 1014.53 1014.57 1014.61 1014.61 1014.41 1014.21 1014.01 1013.97 1013.85 1013.69 1013.45 1013.37 1013.33 1013.25 1013.37 1013.41 1013.37 1013.29 1013.25 1013.41 1013.57 1013.65 1013.73 1013.93 1014.09
1008.81 1008.77 1008.73 1008.89 1009.01 1008.97 1008.89 1008.73 1008.53 1008.49 1008.61 1008.81 1009.13 1009.65 1010.09 1010.45 1010.61 1010.85 1011.17 1011.53 1011.73 1011.89 1012.05 1012.29 1012.53 1012.69 1012.69 1012.61 1012.49 1012.41 1012.37 1012.29 1012.29 1012.33 1012.45 1012.53 1012.69 1012.77 1013.05 1013.25 1013.33 1013.37 1013.49 1013.53 1013.61 1013.73 1013.89 1014.05 1014.21 1014.29 1014.37 1014.37 1014.45 1014.41 1014.33 1014.21 1013.93 1013.81 1013.73 1013.61 1013.53 1013.57 1013.57 1013.53 1013.45 1013.49 1013.41 1013.49 1013.73 1013.73 1013.89 1014.01 1014.13 1014.25
1008.65 1008.69 1008.61 1008.33 1008.45 1008.53 1008.61 1008.53 1008.29 1008.21 1008.37 1008.65 1009.05 1009.45 1009.81 1010.25 1010.53 1010.81 1011.09 1011.37 1011.65 1011.85 1012.05 1012.29 1012.53 1012.73 1012.73 1012.73 1012.57 1012.41 1012.29 1012.29 1012.21 1012.21 1012.29 1012.41 1012.41 1012.57 1012.77 1012.89 1012.93 1012.93 1013.05 1013.17 1013.21 1013.45 1013.69 1013.89 1014.09 1014.21 1014.29 1014.29 1014.17 1014.05 1014.01 1014.13 1014.17 1013.97 1013.73 1013.57 1013.61 1013.77 1013.61 1013.65 1013.61 1013.57 1013.65 1013.77 1013.81 1013.97 1014.17 1014.29 1014.33 1014.45
1008.29 1008.29 1008.49 1008.21 1007.93 1008.05 1008.13 1008.17 1008.01 1008.05 1008.17 1008.41 1008.73 1009.21 1009.65 1010.13 1010.33 1010.73 1011.05 1011.33 1011.57 1011.81 1011.97 1012.13 1012.29 1012.37 1012.45 1012.49 1012.49 1012.45 1012.33 1012.25 1012.17 1012.17 1012.17 1012.17 1012.25 1012.37 1012.45 1012.65 1012.69 1012.69 1012.77 1012.89 1012.93 1013.05 1013.41 1013.65 1013.89 1014.13 1014.25 1014.25 1014.17 1013.97 1013.89 1013.81 1014.01 1014.13 1014.01 1013.81 1013.69 1013.69 1013.69 1013.73 1013.77 1013.81 1013.81 1013.93 1013.97 1014.29 1014.41 1014.53 1014.57 1014.65
1007.97 1007.93 1008.01 1008.05 1007.69 1007.53 1007.73 1007.77 1007.77 1007.81 1007.97 1008.21 1008.57 1009.01 1009.53 1009.93 1010.17 1010.53 1010.93 1011.13 1011.37 1011.61 1011.77 1011.93 1012.09 1012.25 1012.41 1012.49 1012.53 1012.49 1012.45 1012.37 1012.33 1012.25 1012.17 1012.17 1012.17 1012.17 1012.21 1012.37 1012.41 1012.41 1012.49 1012.53 1012.65 1012.69 1013.01 1013.37 1013.57 1013.89 1014.09 1014.09 1014.21 1014.13 1013.93 1013.73 1013.85 1014.01 1014.17 1014.05 1013.77 1013.65 1013.65 1013.77 1013.89 1013.89 1013.97 1014.09 1014.17 1014.33 1014.37 1014.73 1014.81 1014.85
1007.85 1007.77 1007.73 1007.73 1007.57 1007.21 1007.17 1007.37 1007.49 1007.65 1007.77 1008.13 1008.45 1008.77 1009.21 1009.65 1010.01 1010.33 1010.69 1010.93 1011.25 1011.45 1011.65 1011.89 1012.13 1012.29 1012.41 1012.53 1012.57 1012.53 1012.49 1012.45 1012.45 1012.37 1012.29 1012.25 1012.21 1012.17 1012.17 1012.09 1012.09 1012.13 1012.21 1012.25 1012.29 1012.41 1012.61 1013.01 1013.21 1013.49 1013.77 1014.01 1014.13 1014.21 1014.01 1013.85 1013.77 1013.81 1013.97 1014.05 1013.89 1013.73 1013.77 1013.89 1014.01 1014.09 1014.05 1014.09 1014.33 1014.45 1014.37 1014.41 1014.77 1014.97
1007.73 1007.57 1007.49 1007.41 1007.37 1007.17 1007.01 1006.97 1007.25 1007.53 1007.73 1007.97 1008.25 1008.65 1009.09 1009.53 1010.05 1010.53 1010.85 1011.01 1011.29 1011.53 1011.73 1011.97 1012.21 1012.37 1012.45 1012.49 1012.57 1012.57 1012.53 1012.45 1012.41 1012.41 1012.33 1012.21 1012.21 1012.17 1012.13 1012.09 1011.93 1011.89 1011.93 1011.97 1012.09 1012.17 1012.25 1012.57 1012.89 1013.17 1013.41 1013.69 1013.89 1014.05 1014.25 1013.85 1013.85 1013.57 1013.49 1013.77 1013.89 1013.77 1013.81 1014.01 1014.13 1014.17 1014.21 1014.29 1014.37 1014.49 1014.49 1014.49 1014.69 1014.89
1007.73 1007.61 1007.41 1007.21 1007.05 1006.97 1006.97 1006.81 1006.77 1007.29 1007.61 1007.85 1008.13 1008.53 1009.05 1009.69 1010.37 1010.89 1011.05 1011.21 1011.49 1011.65 1011.89 1012.09 1012.29 1012.41 1012.49 1012.53 1012.57 1012.57 1012.57 1012.53 1012.53 1012.53 1012.45 1012.33 1012.17 1012.09 1011.93 1011.89 1011.85 1011.69 1011.65 1011.73 1011.85 1011.97 1012.09 1012.37 1012.49 1012.77 1012.93 1013.21 1013.37 1013.37 1013.45 1013.65 1013.41 1013.05 1013.13 1013.17 1013.45 1013.73 1013.77 1013.81 1014.05 1014.29 1014.29 1014.45 1014.69 1014.89 1015.09 1015.09 1015.01 1015.05
1007.41 1007.61 1007.45 1007.25 1007.09 1006.85 1006.81 1006.89 1006.81 1006.97 1007.45 1007.81 1008.13 1008.57 1009.13 1009.85 1010.41 1010.89 1011.21 1011.45 1011.61 1011.77 1011.93 1012.09 1012.25 1012.41 1012.49 1012.57 1012.61 1012.65 1012.65 1012.65 1012.65 1012.61 1012.53 1012.41 1012.21 1012.01 1011.89 1011.73 1011.69 1011.57 1011.57 1011.57 1011.69 1011.77 1011.89 1012.01 1012.17 1012.33 1012.41 1012.25 1012.25 1012.37 1012.53 1012.61 1012.69 1012.81 1012.93 1013.01 1013.17 1013.45 1013.69 1013.81 1013.93 1014.21 1014.45 1014.45 1014.69 1014.81 1015.25 1015.25 1015.37 1015.61
1007.01 1007.25 1007.33 1007.21 1007.13 1006.93 1006.81 1006.89 1006.97 1007.21 1007.57 1007.93 1008.33 1008.77 1009.21 1009.81 1010.33 1010.77 1011.05 1011.29 1011.53 1011.69 1011.85 1011.97 1012.09 1012.21 1012.37 1012.53 1012.65 1012.73 1012.81 1012.81 1012.81 1012.81 1012.77 1012.73 1012.57 1012.33 1012.01 1011.73 1011.57 1011.49 1011.49 1011.41 1011.37 1011.45 1011.57 1011.53 1011.57 1011.57 1011.73 1011.97 1012.13 1012.33 1012.61 1012.85 1012.85 1013.01 1013.01 1013.05 1013.09 1013.33 1013.65 1013.81 1013.85 1013.85 1013.89 1014.25 1014.57 1014.81 1015.09 1015.17 1015.33 1015.61
1006.41 1006.77 1006.93 1007.05 1007.01 1006.89 1006.85 1006.93 1007.21 1007.57 1007.97 1008.29 1008.61 1009.05 1009.53 1009.97 1010.33 1010.61 1010.93 1011.17 1011.45 1011.65 1011.85 1011.97 1012.09 1012.25 1012.37 1012.53 1012.65 1012.73 1012.89 1012.93 1012.89 1012.77 1012.65 1012.61 1012.57 1012.37 1012.13 1011.97 1011.77 1011.37 1011.29 1011.17 1011.09 1011.13 1011.13 1011.21 1011.37 1011.57 1011.77 1011.97 1012.13 1012.37 1012.57 1012.49 1012.61 1012.97 1013.09 1013.21 1013.25 1013.25 1013.45 1013.73 1013.89 1014.01 1013.81 1013.85 1014.33 1014.77 1014.97 1015.05 1014.97 1015.29
1005.97 1006.29 1006.57 1006.69 1006.85 1006.85 1007.05 1007.33 1007.57 1007.85 1008.29 1008.65 1009.05 1009.41 1009.81 1010.17 1010.45 1010.73 1011.13 1011.33 1011.53 1011.73 1011.89 1012.05 1012.21 1012.33 1012.49 1012.61 1012.73 1012.81 1012.93 1013.05 1013.01 1012.93 1012.77 1012.61 1012.41 1012.25 1011.97 1011.61 1011.41 1011.25 1011.05 1010.97 1010.93 1011.01 1011.09 1011.13 1011.25 1011.41 1011.57 1011.73 1011.81 1011.93 1012.21 1012.21 1012.21 1012.65 1013.09 1013.37 1013.49 1013.57 1013.65 1013.77 1013.89 1014.05 1014.09 1013.93 1014.05 1014.13 1014.21 1014.33 1014.53 1015.05
1006.61 1006.81 1007.17 1007.21 1007.17 1007.37 1007.61 1007.81 1008.05 1008.33 1008.57 1008.97 1009.37 1009.73 1010.01 1010.33 1010.69 1011.01 1011.25 1011.49 1011.73 1011.89 1012.09 1012.17 1012.25 1012.37 1012.53 1012.65 1012.77 1012.85 1012.89 1012.97 1012.97 1012.97 1012.85 1012.69 1012.41 1012.21 1012.01 1011.77 1011.41 1011.01 1010.81 1010.77 1010.81 1010.89 1010.97 1011.09 1011.13 1011.21 1011.41 1011.49 1011.49 1011.73 1011.89 1011.97 1012.25 1012.49 1012.81 1013.29 1013.57 1013.65 1013.73 1013.93 1014.05 1014.17 1014.29 1014.25 1014.29 1014.33 1014.33 1014.33 1014.33 1014.33
1007.69 1007.73 1007.85 1008.05 1008.13 1008.17 1008.33 1008.45 1008.61 1008.85 1009.09 1009.37 1009.65 1009.97 1010.29 1010.61 1010.93 1011.13 1011.33 1011.57 1011.85 1012.01 1012.13 1012.21 1012.33 1012.49 1012.61 1012.73 1012.81 1012.89 1012.93 1012.93 1012.89 1012.85 1012.73 1012.57 1012.41 1012.25 1012.09 1011.89 1011.65 1011.33 1011.05 1010.81 1010.85 1010.85 1010.93 1010.93 1010.89 1010.97 1011.01 1011.13 1011.25 1011.41 1011.49 1011.61 1011.97 1012.57 1012.81 1013.17 1013.49 1013.65 1013.77 1013.89 1014.01 1014.17 1014.41 1014.65 1014.65 1014.49 1014.45 1014.49 1014.53 1014.53
Wind_Speed
7 6 7 7 6 6 5 5 5 4 2 2 2 3 4 3 5 6 5 6 6 4 4 5 2 3 3 4 4 4 1 5 8 3 3 4 5 11 17 18 18 19 19 19 20 20 20 21 21 21 21 22 23 23 23 23 24 23 24 22 16 15 16 19 20 21 19 18 16 10 4 2 5 11
6 7 7 6 7 5 6 5 5 5 4 5 4 4 4 4 7 5 7 7 4 5 3 5 4 3 5 5 5 3 4 10 11 6 7 7 8 16 17 17 17 18 18 18 19 19 19 20 21 20 20 21 21 22 23 23 23 23 24 25 21 15 18 18 18 19 20 20 19 17 10 6 6 3
8 8 9 7 7 6 7 7 6 6 5 5 6 4 4 5 5 5 5 9 4 3 6 4 4 6 7 6 6 5 4 5 9 7 7 7 12 17 12 16 17 18 18 18 18 18 18 18 19 20 19 19 20 21 22 22 22 22 23 25 25 19 14 15 15 15 16 19 19 19 18 16 13 9
7 9 10 9 7 5 5 5 5 6 6 5 4 5 5 4 4 3 4 7 9 3 5 5 7 8 9 8 8 7 6 5 11 7 7 8 13 8 7 12 17 17 17 17 17 17 17 17 17 18 19 19 19 20 21 21 21 20 21 24 23 23 15 13 12 11 13 19 20 20 20 19 19 17
7 6 6 7 8 6 7 4 4 5 5 4 4 5 4 3 3 3 4 6 8 5 3 6 6 5 6 6 5 7 6 4 4 7 7 7 7 7 7 7 13 16 16 17 17 17 17 16 16 17 17 18 18 19 19 20 21 20 21 21 22 23 23 18 11 9 12 18 19 19 19 20 21 19
8 6 7 7 6 4 5 4 4 3 2 3 4 5 4 4 3 3 4 5 6 7 7 8 5 5 4 7 5 7 8 8 6 6 6 5 5 7 8 8 7 15 15 16 17 17 16 16 16 17 17 17 18 19 19 19 20 19 18 19 20 21 21 20 20 15 11 17 18 18 18 20 20 19
7 7 7 7 7 4 5 5 4 3 3 2 2 3 4 5 5 5 6 6 6 6 7 8 7 6 4 5 6 7 6 6 7 8 7 7 7 6 7 7 6 13 17 17 16 16 16 16 17 17 17 17 18 19 18 17 17 17 16 16 18 19 18 19 19 19 19 13 16 17 18 18 19 19
8 8 7 7 7 5 7 7 6 6 4 4 4 4 4 4 6 6 6 7 6 5 6 4 7 6 5 3 4 6 7 8 8 8 8 7 7 9 9 9 8 10 16 15 15 15 16 16 16 17 16 15 16 17 17 15 14 15 14 13 14 16 18 17 17 18 18 18 14 13 16 17 17 17
9 9 9 9 7 7 8 7 7 7 7 7 6 6 5 4 3 4 4 5 5 5 6 5 3 5 5 4 4 5 7 8 8 8 9 9 9 8 7 7 7 12 15 15 15 14 14 14 14 14 14 13 13 15 16 14 13 12 13 12 11 11 14 16 15 15 15 16 15 11 15 13 12 12
9 8 9 10 9 9 10 8 7 7 8 7 7 8 7 5 3 4 4 4 5 5 5 4 5 3 4 3 4 4 6 7 7 7 8 8 8 8 8 8 8 6 5 4 5 8 9 10 13 14 13 14 13 13 13 13 11 11 10 11 11 9 9 13 14 13 13 13 13 12 12 11 10 10
9 9 8 9 10 10 10 9 8 8 7 8 8 7 7 5 4 5 4 4 4 4 4 4 4 4 3 4 6 4 6 7 6 7 8 8 8 7 7 8 6 6 7 9 13 12 12 13 11 12 14 13 14 14 15 14 12 10 10 10 10 9 6 7 9 9 10 11 11 11 11 10 10 10
9 9 9 8 8 9 9 9 8 8 8 7 7 6 6 5 6 5 4 4 5 5 4 4 4 3 3 3 4 4 3 3 4 4 6 9 8 7 7 6 7 6 6 8 7 8 10 10 12 14 13 13 13 13 13 14 13 11 10 10 10 8 7 4 6 6 5 6 9 10 10 8 8 9
9 9 8 8 8 9 11 13 12 10 9 7 7 6 6 6 7 5 5 5 4 5 5 5 3 3 4 4 3 4 3 3 4 3 3 6 7 8 8 8 7 6 7 7 6 7 6 7 7 6 5 5 8 8 12 11 13 13 13 11 10 9 7 6 3 4 5 3 3 6 6 7 7 7
9 9 8 8 13 15 17 17 18 19 19 16 10 7 7 8 7 7 6 6 5 5 5 6 4 5 5 4 4 4 4 3 1 4 4 5 6 6 6 8 6 7 7 7 7 6 5 6 6 6 6 6 6 4 4 4 7 9 12 11 10 10 9 7 4 3 4 3 2 2 4 4 5 6
10 9 9 8 13 16 16 16 20 19 20 20 20 18 15 11 9 8 8 7 6 6 6 4 4 5 4 4 3 3 3 1 2 3 3 2 3 4 5 6 7 4 6 7 8 9 8 7 7 7 6 7 6 5 4 8 11 13 13 12 11 10 9 8 7 5 6 4 3 1 1 3 3 4
10 10 9 8 7 9 11 10 12 16 20 20 19 20 18 18 19 16 11 8 8 8 7 7 6 4 4 4 4 4 2 4 3 4 2 3 3 3 3 5 6 4 9 8 7 9 8 6 6 7 6 6 6 7 9 11 12 13 14 13 11 10 10 8 7 7 5 5 5 4 3 3 4 4
10 9 9 9 8 7 15 14 10 10 12 18 21 20 20 19 19 19 20 17 10 6 7 6 5 5 4 5 5 4 4 3 4 2 1 2 2 3 3 3 6 8 7 7 6 7 9 6 6 6 7 6 6 7 11 14 13 12 12 12 11 9 9 9 8 7 7 6 6 4 3 3 4 5
11 11 10 9 9 8 9 10 11 11 10 10 11 12 12 11 15 19 19 19 19 14 8 7 7 6 4 6 5 5 5 4 4 4 4 2 2 3 5 7 7 6 4 5 5 7 10 4 5 5 7 6 5 6 10 14 12 11 12 11 11 9 7 8 8 8 8 8 6 6 4 3 3 4
10 11 10 10 10 11 11 10 13 11 11 10 9 10 10 10 9 10 11 11 10 10 9 9 9 8 7 7 6 5 4 4 5 5 5 3 2 3 3 4 6 8 7 7 3 5 7 2 3 6 6 7 6 6 8 11 12 11 10 10 10 10 9 8 7 7 7 8 8 8 7 6 4 4
10 10 11 10 11 11 12 16 22 17 11 11 11 10 10 9 9 9 13 17 17 12 9 9 10 9 10 12 8 8 6 5 5 4 4 4 4 3 4 6 5 5 6 6 6 4 5 3 3 5 5 5 7 7 6 9 13 13 12 11 11 11 11 10 10 10 9 9 10 10 9 9 7 6
12 11 12 11 10 10 10 17 21 22 20 10 11 10 10 9 8 8 10 18 22 23 23 22 21 20 21 22 20 18 19 12 8 5 5 5 4 5 5 4 4 5 4 2 7 5 6 2 1 5 5 4 6 7 6 6 9 15 14 13 12 11 12 12 12 12 10 10 10 11 11 11 9 9
11 13 21 16 12 11 12 18 21 22 19 12 11 9 9 10 10 9 8 7 11 20 22 22 22 21 20 21 23 21 17 16 12 8 8 6 6 5 4 5 4 5 5 4 3 3 5 4 3 4 6 5 3 4 5 6 6 9 10 12 13 12 12 13 13 13 12 10 9 9 11 10 9 7
10 12 16 23 17 13 14 21 21 23 18 10 9 10 8 7 8 10 8 9 9 8 8 9 10 10 15 12 9 11 20 18 13 9 10 6 7 6 5 4 4 5 3 4 2 1 4 3 4 2 4 3 6 4 5 6 6 5 4 4 5 10 12 13 14 13 13 12 10 9 10 10 8 5
11 11 11 17 25 25 23 21 23 23 22 13 9 10 8 8 12 9 9 10 9 9 9 9 8 9 8 6 6 5 5 7 8 7 8 8 7 7 7 6 4 6 4 2 4 2 4 2 4 2 2 4 4 5 4 5 5 5 4 3 3 4 7 9 8 13 14 12 12 10 10 10 8 5
8 8 8 7 18 25 24 23 23 22 22 19 12 12 10 12 12 10 9 12 15 8 8 8 7 7 6 6 6 6 6 6 6 6 5 7 8 8 7 6 6 7 7 6 7 2 3 3 3 3 4 3 4 6 6 5 5 3 3 4 4 3 3 3 3 3 6 12 12 12 10 10 11 7
8 9 9 9 13 22 23 23 23 23 21 22 12 13 19 21 19 11 10 7 8 8 8 7 6 6 6 6 6 6 6 6 8 6 6 6 7 8 8 8 7 6 8 3 9 3 1 3 3 5 5 6 7 6 7 5 4 3 1 2 2 2 3 4 4 3 3 2 3 5 5 10 10 11
9 8 9 11 18 21 23 24 24 23 24 19 14 22 22 21 21 15 7 8 8 8 7 7 7 6 6 6 6 6 6 7 7 7 6 7 7 8 8 8 7 9 7 2 4 5 3 3 5 4 5 5 7 8 6 5 5 4 3 2 2 3 2 2 4 4 5 4 3 8 10 9 11 10
8 8 8 9 19 22 22 23 24 24 23 13 20 24 23 21 18 10 9 8 9 8 8 8 7 7 7 7 6 6 6 6 7 7 7 7 7 7 7 8 9 10 9 6 5 6 4 5 6 4 3 5 6 7 8 6 6 5 4 3 3 3 2 1 2 2 3 4 3 4 4 2 1 0
9 12 18 20 20 20 22 24 24 22 23 25 21 22 22 21 10 10 7 6 6 6 6 6 7 7 7 8 8 8 7 7 6 4 5 5 7 7 8 7 6 8 7 6 5 5 4 5 6 5 4 4 5 6 5 6 6 4 4 2 1 3 3 4 1 3 3 4 4 4 3 4 2 3
18 20 21 23 23 21 18 14 12 10 11 17 20 19 18 8 7 6 7 6 6 6 5 3 4 5 6 6 7 8 8 7 7 7 6 6 7 7 6 6 7 6 7 7 6 5 5 5 5 4 4 4 5 5 5 6 5 6 5 3 4 1 4 3 3 2 3 3 3 4 3 4 4 4
14 16 16 12 14 12 17 17 14 13 12 10 12 10 7 8 7 6 6 6 6 6 4 4 2 2 2 4 6 6 7 8 7 7 7 7 7 7 7 7 7 7 7 8 7 6 5 5 5 4 5 4 5 5 5 5 6 5 6 4 2 2 3 1 3 3 2 3 4 5 5 5 5 5
6 10 13 16 13 11 9 9 8 9 8 7 7 6 7 7 8 8 8 6 5 4 4 2 0 2 3 3 3 4 6 6 6 7 7 7 7 7 7 6 7 7 5 5 7 7 6 4 5 5 6 5 6 4 4 3 4 5 4 3 2 1 3 3 1 2 2 4 4 4 3 4 5 5
4 4 8 10 10 9 8 6 7 7 7 7 7 9 8 6 7 7 7 7 6 6 4 2 1 3 3 5 3 2 2 4 6 6 7 7 7 6 7 7 7 6 6 5 5 5 4 4 4 5 4 5 7 7 6 5 4 3 5 3 2 1 0 1 2 2 2 5 2 2 4 3 4 4
7 7 5 8 10 10 8 7 6 6 6 7 8 8 9 8 7 6 6 6 6 4 4 4 3 5 5 5 5 4 3 2 2 3 5 6 6 6 6 7 7 7 6 6 4 5 4 4 3 3 5 6 3 4 6 5 4 5 3 1 0 0 2 1 1 2 3 3 2 3 2 3 3 5
10 9 8 6 8 10 9 8 6 6 7 8 8 8 7 7 8 7 6 5 5 5 5 5 5 5 5 4 4 4 3 2 2 1 1 1 3 5 6 6 6 6 5 5 5 4 5 5 5 4 4 5 5 4 5 5 4 5 4 2 1 2 1 1 2 3 3 2 3 2 3 3 1 0
10 9 9 9 6 8 10 9 6 7 7 7 8 8 7 7 7 7 6 6 6 5 5 5 5 3 2 2 3 2 2 3 2 2 2 2 2 3 3 4 4 5 5 6 5 5 6 6 6 6 5 5 5 6 5 6 7 5 5 2 1 1 0 2 2 3 4 2 2 2 2 3 4 3
10 9 9 9 7 6 9 9 7 6 7 7 7 8 7 6 6 6 6 6 6 6 6 5 4 4 3 3 4 4 4 4 4 3 4 4 3 3 4 4 6 5 5 5 5 5 6 6 7 7 7 5 6 7 5 2 8 9 5 5 3 2 2 3 3 3 2 4 1 1 3 2 3 4
9 9 9 9 10 8 5 9 9 7 7 7 7 7 7 7 6 5 5 6 6 6 5 5 4 3 3 4 3 3 2 2 2 3 4 4 4 5 4 4 4 5 6 5 5 6 6 7 7 7 8 6 6 6 6 4 2 7 13 8 6 6 3 4 4 4 3 1 4 1 1 1 2 4
7 8 7 7 8 9 5 5 10 8 7 7 7 7 7 7 7 6 6 6 6 6 5 4 4 4 4 3 3 2 3 2 2 3 3 4 3 4 4 4 5 4 3 4 4 6 5 6 7 8 8 8 8 7 7 5 7 5 9 18 10 6 4 5 5 4 5 4 1 5 4 2 5 9
9 8 8 7 4 6 6 2 5 8 8 7 7 7 8 8 7 7 6 6 6 5 6 6 5 4 4 4 3 1 1 2 3 3 3 3 4 4 5 4 4 4 5 6 6 6 5 6 7 8 9 9 7 6 6 6 1 1 2 10 16 9 3 2 6 5 3 4 4 5 4 2 3 1
9 9 9 8 6 3 4 4 4 5 6 6 7 7 7 7 7 6 6 6 6 6 6 5 6 5 6 4 3 2 3 3 3 4 4 5 5 5 6 6 6 6 6 5 5 6 7 7 9 13 10 6 5 2 2 1 2 1 3 3 11 13 7 6 1 3 5 5 6 6 5 5 4 3
9 9 9 9 7 5 2 4 5 6 6 6 6 7 6 6 5 7 6 5 6 5 5 4 4 4 4 4 3 3 3 3 3 3 5 5 5 6 8 7 6 5 7 7 5 5 5 4 5 7 6 5 5 6 6 5 4 4 3 1 2 8 12 6 7 5 0 7 7 4 2 1 2 3
9 7 7 7 6 4 4 5 5 6 6 6 6 6 6 6 6 6 5 6 6 6 5 5 4 4 4 3 3 2 3 3 3 3 4 4 4 4 5 5 7 7 5 3 2 1 3 4 4 6 7 7 7 7 7 6 5 5 3 3 3 3 3 6 8 8 9 10 6 3 2 3 4 3
5 6 5 4 5 5 5 5 6 5 6 6 6 6 6 6 6 5 5 5 5 5 4 4 4 5 5 3 2 2 3 3 3 3 4 4 5 5 5 5 6 4 4 5 5 4 6 6 6 6 6 7 6 6 6 5 4 6 6 5 3 5 5 4 5 6 7 10 8 5 8 8 6 3
7 6 6 6 5 5 6 5 6 6 6 6 6 6 5 5 5 5 5 5 4 4 4 4 4 3 3 1 2 2 2 4 4 4 4 4 4 5 5 5 5 6 5 3 5 5 4 4 4 5 5 6 6 7 6 5 4 5 5 6 6 5 5 5 6 5 4 3 8 5 7 8 10 12
Wind_Direction
242 237 231 234 236 241 250 262 263 264 275 253 214 192 208 198 255 276 276 265 277 278 284 298 297 321 337 332 344 14 342 294 316 314 292 302 300 313 312 315 318 318 318 320 321 319 320 324 326 329 334 340 346 346 347 350 352 2 9 16 33 47 54 54 55 57 64 61 54 72 101 160 157 171
237 238 237 234 233 228 229 232 238 242 235 239 233 222 218 205 230 241 265 271 235 279 291 299 298 336 337 341 336 338 345 332 325 323 326 316 308 308 311 316 318 316 319 319 317 316 318 320 322 325 329 335 341 342 343 348 352 353 3 4 12 56 59 58 62 60 59 63 61 57 60 154 112 53
229 234 236 230 229 223 231 230 233 232 222 220 216 219 211 219 209 231 230 270 233 238 273 281 328 331 324 326 324 321 316 319 310 313 309 299 300 306 311 312 312 314 315 316 314 315 315 318 321 324 327 330 336 338 340 343 349 351 357 0 1 12 49 50 52 57 67 68 66 66 67 68 72 75
225 225 228 228 228 223 221 224 223 221 225 221 222 221 219 220 220 210 226 245 267 238 280 300 306 314 310 309 306 305 301 300 301 299 294 298 305 310 304 305 307 312 313 315 313 313 316 319 322 322 325 328 332 334 336 339 344 352 355 357 354 1 30 58 55 61 71 78 75 72 74 74 69 59
232 230 226 221 224 221 228 226 227 229 225 223 221 207 192 215 216 213 232 254 272 268 271 287 285 290 294 294 292 294 292 294 296 289 291 297 302 301 300 297 305 307 310 310 310 311 313 318 320 321 324 328 328 328 332 336 341 352 351 351 352 353 4 19 41 44 74 88 84 79 75 76 77 70
229 232 231 229 219 206 216 215 230 238 246 228 221 209 198 207 222 220 235 259 265 271 268 271 272 284 304 301 314 315 312 307 294 291 290 292 300 302 296 297 290 304 309 309 310 311 315 319 321 321 323 323 323 321 327 336 339 348 347 348 346 349 357 4 9 26 64 83 82 81 79 78 79 75
220 224 225 226 217 215 219 219 224 230 248 271 266 258 205 196 211 224 233 243 248 251 256 261 274 275 286 286 301 301 303 311 319 315 313 304 291 281 295 298 300 300 301 304 306 311 315 317 317 316 316 318 316 317 323 332 333 337 341 343 341 343 352 359 4 14 19 45 83 84 82 78 79 79
212 217 222 222 218 216 217 219 218 224 228 237 240 244 255 207 206 214 227 229 245 252 258 246 260 271 284 294 304 316 315 314 314 310 306 310 310 304 292 289 287 286 294 300 306 310 312 313 312 311 309 311 310 310 313 319 322 325 329 335 342 337 344 356 5 13 13 17 37 69 73 74 73 70
211 213 219 220 218 218 219 211 210 207 219 227 229 234 239 234 207 209 219 233 239 245 247 258 246 270 280 286 297 302 301 302 295 297 296 296 293 289 289 291 286 291 296 300 305 307 309 311 313 312 312 309 305 301 302 306 307 316 321 324 332 337 338 347 2 10 12 16 16 47 79 71 72 74
212 211 213 214 212 215 215 215 205 198 204 207 216 223 228 229 231 220 224 220 225 231 247 241 263 254 260 280 267 261 270 278 290 293 293 293 293 296 295 285 280 275 276 279 278 291 292 293 299 302 303 302 304 305 303 299 295 296 306 312 313 322 335 337 351 3 8 15 22 26 65 79 72 79
215 214 216 212 207 209 212 213 208 201 200 200 205 209 212 216 217 227 233 237 237 234 234 242 230 242 247 249 272 273 266 273 276 291 299 300 296 298 306 306 309 317 316 309 314 314 312 308 305 300 293 288 284 285 288 293 299 290 282 287 299 309 324 334 333 352 3 6 20 31 44 61 73 73
216 214 214 215 212 206 206 207 208 204 205 196 204 202 193 200 207 220 227 233 237 243 245 239 247 233 250 248 256 267 272 288 309 297 286 286 293 290 286 298 323 321 314 314 309 307 300 296 294 293 293 292 287 280 278 278 279 287 284 273 273 279 292 297 312 323 353 4 11 25 33 46 61 66
218 216 213 215 215 214 212 206 206 208 203 194 201 200 190 193 196 207 211 221 228 234 230 247 227 236 242 243 251 275 277 257 248 287 332 316 322 323 325 320 313 305 308 305 312 311 300 300 295 283 280 272 272 266 269 273 274 273 272 273 271 271 268 271 246 290 314 355 45 39 39 43 57 79
219 215 213 216 216 219 222 218 216 218 217 213 204 198 190 194 193 198 205 211 216 224 225 228 221 232 236 227 220 232 240 241 305 336 313 310 307 322 328 322 310 305 304 306 307 305 319 318 316 316 297 291 276 261 243 247 265 267 268 262 260 262 260 249 246 203 260 283 321 58 61 62 63 70
217 218 214 210 217 221 223 224 222 220 219 216 215 213 206 199 190 189 201 209 211 218 231 226 215 223 235 233 227 227 235 238 229 228 242 276 332 339 312 314 300 332 6 346 335 328 322 332 323 313 320 312 300 282 258 254 262 272 272 267 256 254 256 251 238 228 205 227 262 276 130 106 98 78
216 218 217 214 210 212 213 213 218 220 220 217 214 212 212 212 209 204 191 194 202 213 225 226 226 209 222 230 214 232 223 251 256 251 223 225 242 269 295 287 297 283 7 337 334 311 310 326 310 320 313 315 320 308 290 261 259 268 275 275 269 255 250 250 241 228 217 196 218 220 214 175 127 119
213 212 212 214 212 212 214 214 213 214 219 221 219 216 217 217 216 215 213 208 204 195 213 226 229 212 214 224 231 205 209 195 216 257 287 286 279 274 278 298 301 312 320 324 324 307 299 309 307 304 299 307 307 309 315 300 278 271 270 274 274 267 251 248 245 228 219 206 195 213 216 182 148 140
213 210 208 207 211 209 210 211 207 205 210 215 222 224 221 218 221 223 222 220 217 214 210 212 223 227 207 226 217 217 210 204 210 205 229 235 272 277 271 264 271 286 317 288 295 301 289 297 295 293 292 295 292 295 294 304 293 268 264 269 274 276 267 252 244 232 215 207 199 195 189 187 161 153
214 211 210 209 210 206 204 210 204 200 200 204 214 219 221 220 214 217 226 227 220 219 206 205 216 223 223 227 228 232 218 201 206 193 208 218 247 264 289 313 294 289 268 251 243 263 276 298 303 283 291 294 292 282 285 291 300 289 270 262 264 268 269 262 250 236 216 203 200 197 193 190 189 176
215 214 213 215 214 206 201 207 208 203 198 199 203 208 212 215 219 222 223 225 227 224 217 208 208 214 220 227 224 223 222 227 228 207 211 225 239 250 259 258 267 253 262 219 202 249 288 270 253 286 285 299 303 290 280 285 286 281 276 272 265 263 264 260 257 245 230 216 205 201 197 192 183 189
211 214 213 212 212 212 207 206 209 205 196 193 196 195 200 203 209 219 221 230 231 230 231 232 231 227 230 238 243 242 239 227 202 190 197 224 205 236 262 274 278 280 263 226 194 221 269 303 298 295 298 305 291 297 286 270 260 263 265 261 254 252 254 257 257 254 244 229 217 209 204 200 190 188
204 212 219 216 214 210 212 211 209 208 196 189 193 182 193 198 205 215 211 217 233 238 237 236 236 237 238 238 239 243 245 244 231 168 207 210 171 206 233 268 268 276 282 264 206 222 253 304 304 303 288 301 276 274 281 276 270 258 256 257 250 246 248 252 251 254 253 240 224 214 207 205 187 185
208 210 218 219 217 217 214 213 212 212 205 181 177 176 178 192 204 210 201 210 216 228 244 252 250 251 248 249 248 234 238 239 235 190 203 184 171 201 214 240 282 301 286 269 189 195 290 322 273 262 332 331 273 252 260 273 269 270 257 244 242 238 242 244 247 248 250 249 238 220 208 202 185 170
202 208 207 214 217 217 218 216 215 215 212 178 173 178 186 199 215 206 203 212 212 212 217 231 232 241 246 257 255 254 241 252 256 235 199 195 183 193 212 218 227 252 263 276 12 337 276 273 314 331 240 297 325 311 330 316 284 254 225 218 225 239 236 246 247 246 246 251 252 242 221 208 185 164
202 206 216 212 213 217 216 216 219 217 213 183 175 181 195 205 213 190 200 212 210 208 213 222 226 231 239 239 242 239 237 236 230 232 212 199 199 197 204 213 218 240 249 258 285 301 276 291 300 329 333 300 277 318 296 277 281 268 227 193 206 227 208 224 208 223 249 249 250 252 244 227 209 177
208 208 209 218 217 219 219 219 219 219 219 189 170 191 202 209 211 195 199 189 194 201 205 207 208 213 213 223 226 229 233 231 230 221 216 207 202 210 203 203 207 233 256 235 257 236 279 346 336 337 338 334 316 313 312 306 276 290 327 327 188 189 162 200 184 194 186 204 242 266 265 247 233 214
209 209 212 209 217 219 219 221 220 218 220 206 184 195 204 212 213 209 184 186 191 195 201 196 201 201 202 205 211 219 226 229 225 221 213 206 207 211 214 218 212 235 254 264 291 310 326 283 328 335 316 315 318 319 322 324 326 328 34 359 13 44 28 155 163 185 186 183 193 227 241 244 243 236
207 217 223 219 214 218 221 221 222 222 224 212 196 197 208 211 213 206 202 193 190 192 192 194 198 198 194 195 203 209 212 220 212 215 210 208 207 209 213 219 229 234 246 243 246 258 259 271 282 281 292 311 313 323 318 324 337 360 351 338 31 9 3 48 171 175 174 173 170 190 183 212 271 306
205 216 225 229 227 222 221 222 223 224 228 223 212 203 202 208 211 212 201 183 178 183 184 188 197 205 201 196 199 196 195 203 202 204 211 207 211 217 222 225 230 235 241 242 233 231 215 210 251 276 286 288 292 292 322 315 324 339 324 338 3 324 7 351 56 118 143 121 120 109 118 148 123 120
205 219 226 226 227 229 229 226 219 218 221 226 218 210 205 190 171 165 167 166 172 174 186 193 200 202 205 206 200 195 192 194 203 200 200 199 212 209 218 231 241 241 240 243 239 235 222 210 226 246 265 271 274 292 292 305 331 324 350 10 265 333 22 355 7 26 76 96 107 99 102 88 89 93
203 215 223 235 240 236 235 240 229 217 214 215 213 206 184 157 162 159 164 168 163 176 171 189 220 248 249 232 213 201 192 194 197 191 198 201 206 201 207 216 230 232 232 227 229 225 226 207 203 206 243 257 267 262 286 299 311 329 320 315 347 104 253 47 13 53 73 78 76 70 56 67 62 74
203 199 213 225 234 243 247 245 236 219 207 197 193 170 152 160 156 165 160 152 154 156 150 134 47 325 309 303 270 229 207 204 203 193 194 190 200 200 202 208 220 224 222 207 220 229 226 203 197 211 223 243 262 280 282 268 252 276 304 329 10 343 16 93 45 47 60 79 66 60 76 73 65 62
238 238 205 206 221 232 233 237 228 208 192 185 167 155 155 155 155 149 147 152 163 156 140 157 192 245 284 282 272 258 255 234 219 210 207 206 209 201 195 209 217 211 213 212 201 222 230 226 194 201 231 231 234 247 263 280 294 265 258 294 27 7 306 263 89 82 64 70 61 90 75 66 66 59
211 222 234 207 206 218 219 222 220 198 177 167 161 161 164 155 147 146 147 148 152 149 152 165 195 223 227 243 266 283 262 258 247 231 219 225 216 213 205 208 209 208 207 204 187 187 202 200 186 199 230 259 281 231 216 218 249 296 281 226 87 317 245 217 152 143 104 137 160 98 72 53 57 65
213 208 216 229 204 210 213 214 210 180 173 168 159 155 148 148 151 147 151 157 155 165 174 183 192 196 208 212 219 228 255 267 283 294 253 219 220 221 219 211 206 203 197 190 195 183 175 183 177 190 210 228 242 252 220 198 200 241 307 314 229 206 269 165 150 130 125 80 57 96 155 121 94 61
211 207 208 216 222 199 207 211 199 179 170 165 155 151 146 155 149 148 158 165 162 169 160 162 166 176 192 217 248 265 270 275 271 270 296 299 269 237 211 207 204 208 199 204 205 192 168 181 176 184 206 182 210 244 242 204 188 192 220 269 276 241 236 121 149 136 113 113 93 134 163 159 199 226
207 207 208 208 224 214 199 205 197 180 172 162 158 152 153 153 160 154 163 146 149 154 160 154 168 180 196 208 217 222 230 231 252 262 258 254 256 260 256 240 225 221 217 222 206 199 172 175 183 177 175 196 212 235 243 131 209 204 185 212 249 248 147 142 131 114 134 141 104 142 202 167 186 212
207 207 206 204 212 229 215 195 189 179 169 164 157 147 142 142 132 134 140 135 151 148 150 154 173 182 193 205 207 234 236 241 238 238 239 233 241 248 245 249 236 222 219 215 207 211 184 176 179 185 184 196 208 223 257 235 219 222 206 197 197 227 177 141 161 162 182 134 163 251 252 94 186 201
208 214 212 206 204 218 219 212 174 171 162 159 151 142 136 127 128 132 141 150 154 152 149 152 172 189 190 202 202 210 222 234 248 251 263 268 256 257 253 243 241 239 219 222 207 217 196 184 183 185 192 197 208 213 206 219 227 226 209 205 199 198 208 174 175 169 152 164 93 51 54 103 68 69
195 210 220 218 230 207 190 183 156 155 153 146 142 136 136 140 146 151 150 153 154 164 163 175 186 187 185 183 181 199 237 235 237 252 266 273 271 263 255 260 261 245 228 224 217 221 205 187 186 190 200 209 206 194 195 209 225 177 198 214 205 186 178 164 171 159 178 174 130 117 131 124 111 298
184 196 208 218 229 229 169 162 142 122 129 130 128 128 132 141 148 159 162 162 160 165 170 174 176 172 178 168 174 178 202 221 226 241 256 268 271 274 270 261 254 254 253 239 215 213 208 202 196 202 203 196 194 142 67 102 189 144 203 254 214 200 155 81 72 179 162 163 157 167 159 165 157 143
181 188 198 206 216 224 175 141 128 124 122 123 122 127 128 136 149 149 150 151 151 158 163 169 169 158 162 163 170 177 192 220 235 236 227 223 234 247 258 262 262 245 228 227 207 212 225 226 202 194 192 173 163 192 222 225 179 174 179 82 26 209 200 120 88 40 148 158 161 148 144 168 105 127
176 177 181 186 194 179 134 125 126 126 124 120 120 122 125 130 135 136 133 142 145 146 160 162 162 157 173 179 181 184 193 222 229 244 259 266 270 264 258 248 240 237 234 240 222 214 250 242 212 192 195 179 189 187 213 215 191 160 147 124 136 82 117 125 103 84 58 63 70 107 159 165 157 178
73 91 82 85 118 123 115 115 113 113 117 122 123 126 130 135 141 143 145 143 150 162 163 171 166 157 166 167 171 188 206 218 232 244 252 254 252 252 255 269 283 275 249 240 250 255 254 233 206 181 184 198 188 186 202 206 192 164 155 150 126 129 133 136 117 84 55 47 52 86 80 74 78 115
47 59 69 64 66 77 84 90 97 99 102 106 117 124 126 122 128 129 128 138 143 151 151 143 135 135 139 136 147 208 240 244 244 245 251 264 271 276 280 282 278 273 270 238 211 223 202 205 201 184 194 197 186 189 190 186 158 150 143 142 149 149 154 156 147 143 111 75 17 48 108 107 106 92